Newton, KS

4:06 PM CST on December 10, 2019 (GMT -0600)
Newton City County

Weather History for KEWK - October, 2019

Change the Weather History Date:

Tuesday, October 8, 2019

  Actual Average Record
Temperature  
Mean Temperature 59 °F -  
Max Temperature 72 °F 68 °F 87 °F (2010)
Min Temperature 46 °F 48 °F 35 °F (2005)
Degree Days  
Heating Degree Days 6    
Growing Degree Days 9 (Base 50)    
Moisture  
Dew Point 45 °F    
Average Humidity 63    
Maximum Humidity 83    
Minimum Humidity 38    
Precipitation  
Precipitation 0.00 in - - ()
Sea Level Pressure  
Sea Level Pressure 30.03 in    
Wind  
Wind Speed 13 mph (SSE)    
Max Wind Speed 23 mph    
Max Gust Speed 30 mph    
Visibility 10 miles    
Events      
Averages and records for this station are not official NWS values.
T = Trace of Precipitation, MM = Missing Value Source: NWS Daily Summary

Daily Weather History Graph

Daily Weather History Graph

Search for Another Location

Airport or City:

Astronomy

Oct. 08, 2019 Rise Set
Actual Time 7:30 AM CDT 7:01 PM CDT
Civil Twilight 7:04 AM CDT 7:28 PM CDT
Nautical Twilight 6:34 AM CDT 7:58 PM CDT
Astronomical Twilight 6:03 AM CDT 8:29 PM CDT
Moon 4:55 PM CDT (10/8) 2:27 AM CDT (10/8)
Length of Visible Light 12h 23m
Length of Day
11h 30m
Waxing Gibbous, 78% of the Moon is Illuminated
Oct 8
Waxing Gibbous
Oct 13
Full
Oct 21
Last Quarter
Oct 27
New
Nov 4
First Quarter

Hourly Weather History & Observations

Time (CDT) Temp. Dew Point Humidity Pressure Visibility Wind Dir Wind Speed Gust Speed Precip Events Conditions
12:56 AM 46.9 °F 41.0 °F 80% 30.15 in 10.0 mi SSE 9.2 mph - N/A   Clear
1:56 AM 48.9 °F 42.1 °F 77% 30.14 in 10.0 mi SSE 10.4 mph - N/A   Clear
2:56 AM 48.0 °F 42.1 °F 80% 30.14 in 10.0 mi SSE 10.4 mph - N/A   Clear
3:56 AM 46.9 °F 42.1 °F 83% 30.12 in 10.0 mi SSE 9.2 mph - N/A   Clear
4:56 AM 46.9 °F 41.0 °F 80% 30.12 in 10.0 mi SSE 9.2 mph - N/A   Clear
5:56 AM 46.9 °F 42.1 °F 83% 30.12 in 10.0 mi SSE 10.4 mph - N/A   Clear
6:56 AM 48.0 °F 42.1 °F 80% 30.12 in 10.0 mi SSE 10.4 mph - N/A   Clear
7:56 AM 48.0 °F 42.1 °F 80% 30.12 in 10.0 mi SSE 10.4 mph - N/A   Clear
8:56 AM 53.1 °F 43.0 °F 69% 30.11 in 10.0 mi SSE 11.5 mph - N/A   Clear
9:56 AM 60.1 °F 45.0 °F 57% 30.10 in 10.0 mi South 15.0 mph 21.9 mph N/A   Clear
10:56 AM 64.9 °F 45.0 °F 48% 30.08 in 10.0 mi South 21.9 mph 27.6 mph N/A   Clear
11:56 AM 66.9 °F 45.0 °F 45% 30.06 in 10.0 mi South 21.9 mph - N/A   Clear
12:56 PM 70.0 °F 45.0 °F 41% 30.03 in 10.0 mi SSW 23.0 mph 27.6 mph N/A   Clear
1:56 PM 71.1 °F 44.1 °F 38% 29.99 in 10.0 mi South 23.0 mph 29.9 mph N/A   Clear
2:56 PM 72.0 °F 46.0 °F 40% 29.96 in 10.0 mi South 17.3 mph 27.6 mph N/A   Clear
3:56 PM 72.0 °F 46.0 °F 40% 29.94 in 10.0 mi South 18.4 mph 26.5 mph N/A   Clear
4:56 PM 72.0 °F 46.0 °F 40% 29.92 in 10.0 mi South 21.9 mph 27.6 mph N/A   Clear
5:56 PM 69.1 °F 46.9 °F 45% 29.91 in 10.0 mi SSE 19.6 mph 25.3 mph N/A   Clear
6:56 PM 66.0 °F 48.9 °F 54% 29.92 in 10.0 mi SSE 12.7 mph 20.7 mph N/A   Clear
7:56 PM 63.0 °F 48.9 °F 60% 29.93 in 10.0 mi SSE 12.7 mph - N/A   Clear
8:56 PM 59.0 °F 48.9 °F 69% 29.94 in 10.0 mi SSE 9.2 mph - N/A   Clear
9:56 PM 59.0 °F 48.9 °F 69% 29.93 in 10.0 mi SSE 12.7 mph - N/A   Clear
10:56 PM 57.9 °F 48.9 °F 72% 29.94 in 10.0 mi SSE 11.5 mph - N/A   Clear
11:56 PM 55.9 °F 48.0 °F 75% 29.92 in 10.0 mi SSE 11.5 mph - N/A   Clear